User: anonymous   Login
Location: Hepcat Sky Observatory
(29.9800°N, 95.6500°W)
Time: 15:32:26
(UTC-05:00)
Language:

SL-16 Debris - Orbit

View from above orbital plane
View from above orbital plane
View from above satellite
View from above satellite

Ground track
Ground track

The orbit data is extracted from the following two-line orbital elements,

1 26076U 99040E   17074.46328648 +.00001375 +00000-0 +16694-3 0  9998
2 26076 028.4404 131.3599 4523903 168.3903 207.2362 06.44511076306614
Epoch (UTC): 15 March 2017 11:07:07
Eccentricity: 0.4523903
inclination: 28.4404°
perigee height: 301 km
apogee height: 11336 km
right ascension of ascending node: 131.3599°
argument of perigee: 168.3903°
revolutions per day: 6.44511076
mean anomaly at epoch: 207.2362°
orbit number at epoch: 30661

The dashed part of the orbit path shows where the satellite is in the earth's shadow,  

DLR